Home > Weather > Muscat > Past weeks

Flag for Oman Weather for the Past 2 Weeks in Muscat, Oman

Now
91 °F

Clear.


Feels Like: 89 °F
Forecast: 83 / 89 °F
Wind: 2 mph from South

Location: International Airport

Current Time: May 1, 2016 at 9:37:19 PM

Latest Report: May 1, 2016 at 8:50 PM


Visibility: 6 mi

Pressure: 29.74 "Hg

Humidity: 30%

Dew Point: 55 °F

Location of MuscatLocation

Historic Weather in Muscat — Graph

°F

Muscat Temperature Yesterday

Maximum temperature yesterday: 108 °F (at 10:50 AM)
Minimum temperature yesterday: 88 °F (at 6:50 PM)
Average temperature yesterday: 96 °F

High & Low Weather Summary for the Past Weeks

 TemperatureHumidityPressure
High108 °F (Apr 30, 10:50 AM)84% (Apr 27, 4:50 AM)29.92 "Hg (Apr 27, 4:50 AM)
Low77 °F (Apr 22, 5:50 AM)6% (Apr 23, 10:50 AM)29.68 "Hg (Apr 18, 3:50 PM)
Average89 °F33%29.76 "Hg
* Reported Apr 17 8:50 AM — May 1 7:50 PM, Muscat, Weather by CustomWeather, © 2016

Note: Actual official high and low records may vary slightly from our data, if they occured in-between our weather recording intervals... More about our weather records

Advertising

Muscat Weather History for the Previous 24 Hours

Scroll right to see more
 ConditionsComfort  
Time TempWeatherWind HumidityBarometerVisibility
7:50 PM
Sun, May 1
91 °FClear.3 mph32%29.74 "Hg4 mi
6:50 PM91 °FPassing clouds.No wind32%29.71 "Hg4 mi
5:50 PM91 °FScattered clouds.5 mph34%29.71 "Hg4 mi
4:50 PM91 °FScattered clouds.2 mph38%29.71 "Hg5 mi
3:50 PM93 °FScattered clouds.5 mph34%29.71 "Hg5 mi
2:50 PM93 °FScattered clouds.8 mph34%29.71 "HgN/A
1:50 PM95 °FScattered clouds.14 mph32%29.74 "Hg6 mi
12:50 PM93 °FScattered clouds.9 mph36%29.74 "Hg6 mi
11:50 AM95 °FScattered clouds.17 mph34%29.77 "Hg6 mi
10:50 AM99 °FScattered clouds.9 mph22%29.77 "Hg6 mi
9:50 AM100 °FScattered clouds.3 mph21%29.77 "Hg6 mi
8:50 AM99 °FScattered clouds.2 mph21%29.77 "Hg6 mi
7:50 AM95 °FScattered clouds.2 mph25%29.77 "Hg6 mi
6:50 AM91 °FScattered clouds.6 mph34%29.74 "Hg6 mi
5:50 AM88 °FSunny.5 mph38%29.74 "Hg10 mi
4:50 AM91 °FClear.8 mph34%29.74 "Hg10 mi
3:50 AM88 °FPassing clouds.3 mph40%29.71 "HgN/A
2:50 AM91 °FPassing clouds.5 mph38%29.71 "HgN/A
1:50 AM90 °FClear.5 mph38%29.74 "Hg10 mi
12:50 AM91 °FClear.5 mph44%29.74 "Hg6 mi
11:50 PM
Sat, Apr 30
88 °FPassing clouds.3 mph62%29.77 "HgN/A
10:50 PM90 °FClear.3 mph63%29.77 "Hg10 mi
9:50 PM88 °FClear.1 mph66%29.77 "Hg10 mi
Weather by CustomWeather, © 2016

See weather overviewHow to use our weather pages